Regional Weather Roundup
Issued by NWS Wakefield, VA

Home | Current Version | Previous Version | Graphics & Text | Print | Product List | Glossary On
Versions: 1 2 3 4 5 6 7 8 9 10 11 12 13 14 15 16 17 18 19 20 21 22 23 24 25 26 27 28 29 30 31 32 33 34 35 36 37 38 39 40 41 42 43 44 45 46 47 48 49 50
000
ASUS41 KAKQ 230616
RWRAKQ

REGIONAL WEATHER ROUNDUP
NATIONAL WEATHER SERVICE WAKEFIELD VA
200 AM EDT TUE MAY 23 2017

Note: "fair" indicates few or no clouds below 12,000 feet with no
significant weather and/or obstructions to visibility. * = Denotes
station may not report precipitation (e.g., rain,snow,etc.),
thunder or fog.

VAZ042-051-052>054-056-230700-
NORTHERN VIRGINIA

CITY           SKY/WX    TMP DP  RH WIND       PRES   REMARKS
WASH NATIONAL  CLOUDY    65  64  97 E3        29.95F
DULLES         CLOUDY    61  51  70 NW8       29.96F
FORT BELVOIR   PTCLDY    62  60  95 NW5       29.95F
QUANTICO       CLOUDY    65  62  90 N8        29.96F
FREDERICKSBRG* CLOUDY    64  64 100 CALM      29.94F
STAFFORD*      CLOUDY    62  62 100 N6        29.99F
WARRENTON      CLOUDY    61  53  75 CALM      29.96S
CULPEPER*      CLOUDY    61  56  84 N3        29.97F
MANASSAS*        N/A     61  54  77 N5        29.97F
LEESBURG*      PTCLDY    61  54  77 N8        29.98S
WINCHESTER     CLOUDY    52  50  93 CALM      29.99F
FRONT ROYAL*   CLOUDY    54  52  94 CALM      29.98F
LURAY*         CLOUDY    55  54  94 CALM      29.99S
$$

VAZ048-049-060>072-079>083-230700-
CENTRAL AND SOUTH CENTRAL VIRGINIA

CITY           SKY/WX    TMP DP  RH WIND       PRES   REMARKS
RICHMOND       CLOUDY    64  64 100 CALM      29.93F FOG
CHESTERFIELD*  CLOUDY   N/A N/A N/A CALM      29.95F
PETERSBURG*    FOG       60  59  98 CALM      29.94F VSB 1/2
HANOVER        CLOUDY    64  62  93 CALM      29.95F FOG
TAPPAHANNOCK*  FOG       65  65 100 CALM      29.95F VSB 1/2
QUINTON*       FOG       61  61 100 MISG      29.93F VSB 1/4
CHARLOTTSVILLE CLOUDY    65  63  93 N5        29.95F
GORDONSVILLE*  CLOUDY    64  63  94 CALM      29.96S
ORANGE*        CLOUDY    64  55  72 NE5       29.96F
LOUISA*        CLOUDY    70  68  94 CALM      29.95S
BUMPASS*       CLOUDY    65  65 100 CALM      29.95F
FARMVILLE*     FOG       67  67 100 CALM      29.93S VSB 1/4
CREWE*         CLOUDY    63  59  87 CALM      29.93F VSB 1/4
FORT PICKETT*  FAIR      65  62  87 S3        29.94F
CHASE CITY*    FAIR      65  64  94 CALM      29.94F
CLARKSVILLE*   MOCLDY    68  68 100 SW7       29.93F
SOUTH HILL*    CLOUDY    65  65 100 CALM      29.99F
LAWRENCEVILLE* FAIR      66  65  97 CALM      29.93F
EMPORIA*       FOG       63  63 100 CALM      29.94F VSB 1/2
$$

VAZ088>098-230700-
SOUTHEAST VIRGINIA

CITY           SKY/WX    TMP DP  RH WIND       PRES   REMARKS
NORFOLK        MOCLDY    66  64  93 CALM      29.93F
VIRGINIA BEACH CLOUDY    66  64  93 CALM      29.92F
NORFOLK NAVAL  NOT AVBL
WEST POINT*    CLOUDY    62  61  99 CALM      29.95F VSB 1/2
SALUDA*        CLOUDY    64  64 100 N5        29.93S
NEWPORT NEWS   CLOUDY    62  61  96 CALM      29.92F FOG
LANGLEY AFB    CLOUDY    64  64 100 CALM      29.92F
FORT EUSTIS    MOCLDY    65  63  94 CALM      29.90F
WILLIAMSBURG*  CLOUDY    66  66 100 CALM      29.94F VSB 1
HR EXEC AP*    FAIR      63  61  94 CALM      29.92S
FRANKLIN*      CLOUDY    64  64  97 CALM      29.93F
US460-WAKEFLD  CLOUDY    63  63 100 CALM      29.93F FOG
$$

VAZ020-022-025-037-045-230700-
WEST CENTRAL AND SOUTHWEST VIRGINIA

CITY           SKY/WX    TMP DP  RH WIND       PRES   REMARKS
STAUNTON*      MOCLDY    56  51  81 CALM      30.01S
WAYNESBORO*    MOCLDY    55  55  99 CALM      29.99F
HOT SPRINGS VA PTCLDY    55  39  54 CALM      30.04F
LYNCHBURG      CLOUDY    58  56  93 CALM      29.96F
DANVILLE       CLOUDY    68  68 100 SE5       29.94F
SOUTH BOSTON*  CLOUDY    67  66  95 SW8       29.94S
MARTINSVILLE   CLOUDY    62  61  96 CALM      29.98S
ROANOKE        CLOUDY    61  56  83 NE5       29.98F
BLACKSBURG     CLOUDY    56  55  94 CALM      30.01F
DUBLIN*        MOCLDY    58  52  79 CALM      30.00F
MARION*        CLOUDY    57  55  91 CALM      30.02F
HILLSVILLE*    CLOUDY    58  56  91 CALM      29.99F
RICHLANDS*     FAIR      58  54  86 NE7       29.99F
WISE*          CLOUDY    55  55 100 CALM      30.00F
ABINGDON*      CLOUDY    63  58  82 E6        29.96F
$$

MDZ021>025-VAZ099-100-230700-
SOUTHERN MARYLAND AND THE DELMARVA PENINSULA

CITY           SKY/WX    TMP DP  RH WIND       PRES   REMARKS
PATUXENT RIVER FOG       63  63 100 N6        29.93F VSB 3/4
BAY BRIDGE APT FOG       61  61 100 NE3       29.94F VSB 3/4
LEONARDTOWN    CLOUDY    61  61 100 CALM      29.95F VSB 3/4
DOVER          CLOUDY    62  62 100 NW5       29.92F
GEORGETOWN     CLOUDY    65  63  93 NW5       29.94S
EASTON         CLOUDY    63  61  94 NE5       29.98F FOG
CAMBRIDGE      NOT AVBL
SALISBURY      CLOUDY    65  65 100 N8        29.92F
OCEAN CITY     CLOUDY    64  64 100 N8        29.92S FOG
WALLOPS ISLAND CLOUDY    65  65 100 NW6       29.91F
ACCOMACK*      CLOUDY    67  53  59 NW3       29.92F
$$

NCZ012>017-030>032-230700-
NORTH CENTRAL AND EASTERN NORTH CAROLINA

CITY           SKY/WX    TMP DP  RH WIND       PRES   REMARKS
ROANOKE RAPIDS FAIR      64  64 100 CALM      29.93F FOG
RALEIGH        LGT RAIN  68  67  96 CALM      29.93F
ELIZABETH CITY CLOUDY    70  70 100 S5        29.93F
AHOSKIE*         N/A     65  65  99 CALM      29.93F
EDENTON*       DRIZZLE   73  69  87 CALM      29.93F
CURRITUCK*     CLOUDY   N/A N/A N/A CALM      29.94F
KILL DEVIL HLS NOT AVBL
MANTEO         CLOUDY    69  68  94 SW6       29.94F
CAPE HATTERAS  MOCLDY    72  68  87 SW13G23   29.94F
TARBORO*       NOT AVBL
GOLDSBORO      CLOUDY    69  69 100 CALM      29.91F
WASHINGTON     DRIZZLE   68  67  97 SW5       29.94F
GREENVILLE     CLOUDY    68  68 100 CALM      29.95F
NEW BERN       CLOUDY    67  67 100 SW3       29.95F
WILMINGTON     CLOUDY    69  66  90 CALM      29.93F
$$

VAZ048-230700-
ELSEWHERE

CITY           SKY/WX    TMP DP  RH WIND       PRES   REMARKS
HARRISBURG PA  CLOUDY    57  56  96 CALM      29.96S FOG
BALTIMORE      CLOUDY    58  58 100 NW3       29.94F FOG
ANNAPOLIS      PTCLDY    63  63 100 CALM      29.93F
ANDREWS AFB    FOG       63  63 100 N3        29.94F VSB 1/2
PHILADELPHIA   PTCLDY    63  58  83 CALM      29.94F
HENDERSON NC   RAIN      65  64  96 SW7       29.94F
GREENSBORO     RAIN      66  66 100 NE5       29.93F FOG
ROCKY MOUNT    CLOUDY    70  68  93 S3        29.92F
$$

VAZ100-230700-
MARINE

STATION/POSITION TIME  TEMP    WIND        PRES    WAVE   SWELL
                       AIR SEA DIR/SP/G            HT/PER HT/PER
                 (UTC) (F)     (DEG/KT/KT) (MB)    (FT/S) (FT/S)
CAPE MAY NJ      0548   63 61  310/  1/  6 1012.9F
LEWES DE         0548   63 61  350/ 11/ 13 1013.2F
15NM E FENWICK I 0550   58 57  350/  8/ 10 1013.0F   3/ 5   2/ 5
OCEAN-CITY-INLET 0548   64 63  360/  7/  9 1013.5R
WACHAPREAGUE VA  0548   67 68   CALM  /  3 1012.6F
THOMAS POINT MD  0600   63 66   40/  6/  7   N/A
GOOSES REEF MD   0600   64 58   20/ 10/ 12 1014.4    1/ 2
COVE POINT MD    0548   64      20/ 10/ 13 1014.3F
SOLOMONS ISLAND  0548   62 67  330/  4/  6   N/A
BISHOPS HEAD MD  0548   64 69  340/  8/ 10 1013.9F
PINEY POINT MD   0548           30/  5/  7   N/A
POTOMAC MD       0550   64     350/  6/  6 1012.6F
CAMBRIDGE MD     0536   64 69                N/A
LEWISETTA VA     0548   65 69  340/  4/  5 1013.5F
RAPPAHANNOCK LGT 0548          360/  7/  9 1013.8F
STINGRAY PT      0550   65     350/  6/  8 1013.5F
YORK RVR RNG VA  0548   67     290/  2/  2 1012.9F
YORKTOWN VA      0548   66 69  150/  2/  2 1013.1F
JAMESTOWN VA     0550   67      10/  2/  2   N/A
DOMINION TERM VA 0548   68      40/  2/  3 1013.6F
KIPTOPEKE VA     0548      66  330/  7/  8   N/A
CHES BAY BRIDGE  0548   68 68  280/  5/  5 1013.4F
CAPE HENRY VA    0548   67     220/  2/  3   N/A
WILLOUBY STN VA  0548   68      CALM  /  1 1013.4F
S CRANEY ISL VA  0548   68        CALM     1013.4F
CAPE HENRY BUOY  0542      64                N/A     2/ 5
1ST LANDING BUOY 0600   68 67              1013.6    1/ 4
CAPE CHARLES BUO 0551      62                N/A     2/ 8
64NM E OF VA BCH 0550   65 65  270/  8/  8 1013.9F   4/ 8   3/ 8
DUCK PIER NC     0548   71 65  240/  8/ 11 1013.3F
44100 DUCK FRF   0535      65                N/A     3/ 8
44056 DUCK FRF   0530      65                N/A     2/ 8
OREGON INLET NC  0548          200/ 13/ 16   N/A
HATTERAS NC      0548   72 75  180/  6/ 12 1013.6F
DIAMOND SHLS NC  0550   74 78  200/ 17/ 19 1013.8F   3/ 8   2/ 8
CAPE LOOKOUT NC  0500   73     250/  7/  9 1014.5F
$$



USA.gov is the U.S. government's official web portal to all federal, state and local government web resources and services.